EW3154 Weather Reports


time (UTC)temp
F
wind
direction
speed
knots
gust
knots
rain 1hr
in
rain 24hr
in
rain mn
in
humidity
%
barometer
mb
20260505090051 61 355 0.0 0.0 0.00 0.00 0.00 70 1013.5
20260505084537 61 107 0.0 0.0 0.00 0.00 0.00 70 1013.5
20260505083046 61 88 0.0 0.0 0.00 0.00 0.00 69 1013.4
20260505081540 61 90 0.0 4.3 0.00 0.00 0.00 67 1013.3
20260505080044 61 98 0.0 0.0 0.00 0.00 0.00 71 1013.3
20260505074529 59 109 0.0 0.0 0.00 0.00 0.00 73 1013.3
20260505073027 58 106 0.0 0.0 0.00 0.00 0.00 75 1013.4
20260505071533 57 108 0.0 0.9 0.00 0.00 0.00 76 1013.4
20260505070020 57 103 0.0 3.5 0.00 0.00 0.00 76 1013.4
20260505064518 56 107 0.0 0.0 0.00 0.00 0.00 77 1013.5
20260505063026 56 23 0.0 0.0 0.00 0.00 0.00 82 1013.6
20260505061515 55 23 0.0 0.0 0.00 0.00 0.00 81 1013.5
20260505060010 54 23 0.0 0.0 0.00 0.00 0.00 77 1013.7
20260505054507 53 23 0.0 0.0 0.00 0.00 0.00 83 1013.7
20260505053002 50 116 0.0 0.0 0.00 0.00 0.00 88 1013.6
20260505051558 48 116 0.0 0.0 0.00 0.00 0.00 93 1013.7
20260505041550 40 116 0.0 0.0 0.00 0.00 0.00 94 1013.8
20260505040044 41 116 0.0 0.0 0.00 0.00 0.00 94 1013.7
20260505034539 41 116 0.0 0.0 0.00 0.00 0.00 93 1013.6
20260505033037 42 116 0.0 0.0 0.00 0.00 0.00 93 1013.6
20260505031538 42 116 0.0 0.0 0.00 0.00 0.00 92 1013.9
20260505030036 43 116 0.0 0.0 0.00 0.00 0.00 92 1014.2
20260505024529 43 116 0.0 0.0 0.00 0.00 0.00 91 1014.2
20260505023027 44 116 0.0 0.0 0.00 0.00 0.00 91 1014.2
20260505021525 44 116 0.0 0.0 0.00 0.00 0.00 90 1014.3
20260505020022 45 116 0.0 0.0 0.00 0.00 0.00 89 1014.4
20260505014522 46 116 0.0 0.0 0.00 0.00 0.00 88 1014.4
20260505013018 46 116 0.0 0.0 0.00 0.00 0.00 88 1014.5
20260505011516 47 116 0.0 0.0 0.00 0.00 0.00 88 1014.5
20260505010015 48 116 0.0 0.0 0.00 0.00 0.00 86 1014.6
20260505004512 48 116 0.0 0.0 0.00 0.00 0.00 86 1014.6
20260505003009 48 116 0.0 0.0 0.00 0.00 0.00 85 1014.8
20260505001507 49 116 0.0 0.0 0.00 0.00 0.00 85 1015.0
20260505000005 50 116 0.0 0.0 0.00 0.00 0.00 84 1015.1
20260504234501 50 116 0.0 0.0 0.00 0.00 0.00 84 1015.2
20260504233109 50 116 0.0 0.0 0.00 0.00 0.00 83 1015.4
20260504231557 51 116 0.0 0.0 0.00 0.00 0.00 83 1015.5
20260504230113 51 116 0.0 0.0 0.00 0.00 0.00 83 1015.5
20260504224611 52 116 0.0 0.0 0.00 0.00 0.00 82 1015.6
20260504223051 52 116 0.0 0.0 0.00 0.00 0.00 81 1015.7
20260504221550 52 116 0.0 0.0 0.00 0.00 0.00 80 1015.7
20260504220056 53 116 0.0 0.0 0.00 0.00 0.00 79 1015.7
20260504214548 53 116 0.0 0.0 0.00 0.00 0.00 80 1015.8
20260504213047 53 116 0.0 0.0 0.00 0.00 0.00 79 1015.9
20260504211549 54 116 0.0 0.0 0.00 0.00 0.00 79 1016.0
20260504210059 54 116 0.0 0.0 0.00 0.00 0.00 78 1016.0
20260504204549 55 116 0.0 0.0 0.00 0.00 0.00 77 1016.0
20260504203046 55 116 0.0 0.0 0.00 0.00 0.00 78 1016.0
20260504201548 56 116 0.0 0.0 0.00 0.00 0.00 77 1016.0
20260504200052 56 116 0.0 0.0 0.00 0.00 0.00 76 1015.8
20260504194543 56 116 0.0 0.0 0.00 0.00 0.00 72 1015.7
20260504193044 57 116 0.0 0.0 0.00 0.00 0.00 75 1015.7
20260504191545 58 116 0.0 0.0 0.00 0.00 0.00 74 1015.6
20260504190041 59 116 0.0 0.0 0.00 0.00 0.00 73 1015.4
20260504184541 60 116 0.0 0.0 0.00 0.00 0.00 70 1015.2
20260504183039 61 116 0.0 0.0 0.00 0.00 0.00 68 1015.1
20260504181539 63 116 0.0 0.0 0.00 0.00 0.00 66 1015.1
20260504180038 64 116 0.0 0.0 0.00 0.00 0.00 65 1014.9
20260504174538 65 116 0.0 0.0 0.00 0.00 0.00 64 1014.9
20260504173037 67 116 0.0 0.0 0.00 0.00 0.00 59 1014.8
20260504171538 67 116 0.0 0.0 0.00 0.00 0.00 53 1014.8